Regional Weather Roundup
Issued by NWS

Home | Current Version | Previous Version | Text Only | Print | Product List | Glossary Off
Versions: 1 2 3 4 5 6 7 8 9 10 11 12 13 14 15 16 17 18 19 20 21 22 23 24 25 26 27 28 29 30 31 32 33 34 35 36 37 38 39 40 41 42 43 44 45 46 47 48 49 50

000
ASUS44 KMEG 172310
RWRTN
TENNESSEE HOURLY STATE WEATHER ROUNDUP
NATIONAL WEATHER SERVICE MEMPHIS TN
500 PM CST FRI NOV 17 2017

TNZ002-004-019-021-049-052-054-088>092-180000-
WEST TENNESSEE

CITY           SKY/WX    TMP DP  RH WIND       PRES   REMARKS
MEMPHIS INTL   MOCLDY    70  55  59 S13       29.87F
NWS MEMPHIS      N/A     69 N/A N/A MISG        N/A
JACKSON        CLOUDY    65  50  58 S7        29.90F
DYERSBURG      PTCLDY    67  53  61 S12G20    29.84F
SOMERVILLE     CLEAR     68  54  60 S7        29.88F
COVINGTON      CLEAR     68  55  64 S10       29.85F
UNION CITY     PTCLDY    63  48  59 SE10      29.84F
BOLIVAR        CLEAR     64  52  63 SE8       29.91S
PARIS          MOCLDY    61  46  59 SE9       29.88F
HUNTINGDON     PTCLDY    64  46  52 S10       29.89F
LEXINGTON      PTCLDY    64  46  52 VRB6G13   29.93R
SELMER         CLEAR     64  50  59 S7        29.93S
SAVANNAH       CLEAR     64  48  55 S6        29.93F
$$

TNZ008-025-027-028-033-062-065-066-180000-
NORTH MIDDLE TENNESSEE

CITY           SKY/WX    TMP DP  RH WIND       PRES   REMARKS
NASHVILLE      MOCLDY    59  34  39 SE9       29.97F
PORTLAND       MOCLDY    55  43  62 SE6       29.95F
CLARKSVILLE    MOCLDY    59  37  44 SE7       29.92F
SMYRNA         CLEAR     60  32  34 SE7       29.98F
COOKEVILLE     CLEAR     57  34  41 S6        30.00S
GALLATIN       PTCLDY    55  43  62 CALM      29.99F
CROSSVILLE     CLEAR     53  34  48 VRB3      30.04S
$$

TNZ061-075-076-078-094-096-097-180000-
SOUTH MIDDLE TENNESSEE

CITY           SKY/WX    TMP DP  RH WIND       PRES   REMARKS
FAYETTEVILLE   CLEAR     59  34  38 S8        30.00F
TULLAHOMA      CLEAR     57  32  38 S6        30.01S
WINCHESTER     CLEAR     57  34  41 SE3       30.03S
MCMINNVILLE    CLEAR     59  32  36 CALM      30.00F
COLUMBIA       MOCLDY    63  30  29 S5        29.96S
SHELBYVILLE    CLEAR     57  32  38 S6        30.00S
$$

TNZ017-018-042-046-047-180000-
NORTHEAST TENNESSEE

CITY           SKY/WX    TMP DP  RH WIND       PRES   REMARKS
TRI CITIES     PTCLDY    50  30  46 CALM      30.05S
ELIZABETHTON   CLEAR     46  32  57 CALM      30.06R
$$

TNZ012-013-036-069-073-074-180000-
CENTRAL EAST TENNESSEE

CITY           SKY/WX    TMP DP  RH WIND       PRES   REMARKS
KNOXVILLE      MOCLDY    57  38  48 CALM      30.03F
OAK RIDGE      CLEAR     54  40  59 CALM      30.04F
DOWNTOWN KNOXV CLEAR     52  43  71 CALM      30.05S
GATLINBURG     CLEAR     52  37  58 CALM      30.04S
MORRISTOWN     CLEAR     54  36  50 CALM      30.04S
JACKSBORO      CLEAR     52  37  58 CALM      30.06F
$$

TNZ083-085-099-180000-
SOUTHEAST TENNESSEE

CITY           SKY/WX    TMP DP  RH WIND       PRES   REMARKS
CHATTANOOGA    PTCLDY    61  38  42 S3        30.04F
$$

SKY/WX REPORTED AS FAIR MEANS FEW OR NO CLOUDS BELOW
12 THOUSAND FEET.





USA.gov is the U.S. government's official web portal to all federal, state and local government web resources and services.